{"data":{"norad_id":51986,"epoch":"2026-05-25T03:01:49.589760Z","epoch_age_seconds":60054,"freshness":"FRESH","line1":"1 51986U 22025AG  26145.12626840 -.00000813  00000+0 -32975-4 0  9990","line2":"2 51986  53.2132  55.8293 0001460  91.9626 268.1533 15.08844354232606","mean_motion":15.08844354,"eccentricity":0.000146,"inclination_deg":53.2132,"raan_deg":55.8293,"arg_perigee_deg":91.9626,"mean_anomaly_deg":268.1533,"bstar":-3.2975e-5,"rev_number":23260,"period_min":95.437279278178,"perigee_km":538.72007196619,"apogee_km":540.74008915371,"semimajor_km":6917.86708056,"source":"CELESTRAK","updated_at":"2026-05-25T13:38:16.996442Z"}}